| time (UTC) | temp F | wind direction | speed MPH | gust MPH | rain 1hr in | rain 24hr in | rain mn in | humidity % | barometer mb |
| 20260503045503 | 40 | 57 | 1.0 | 1.0 | 0.00 | 0.00 | 0.00 | 96 | 1015.5 |
| 20260503045041 | 41 | 49 | 1.0 | 2.0 | 0.00 | 0.00 | 0.00 | 96 | 1015.3 |
| 20260503044503 | 41 | 70 | 1.0 | 2.0 | 0.00 | 0.00 | 0.00 | 96 | 1015.3 |
| 20260503044003 | 41 | 63 | 1.0 | 2.0 | 0.00 | 0.00 | 0.00 | 96 | 1015.3 |
| 20260503043503 | 41 | 92 | 1.0 | 1.0 | 0.00 | 0.00 | 0.00 | 96 | 1015.3 |
| 20260503043003 | 41 | 44 | 1.0 | 2.0 | 0.00 | 0.00 | 0.00 | 96 | 1015.3 |
| 20260503042503 | 41 | 85 | 1.0 | 1.0 | 0.00 | 0.00 | 0.00 | 96 | 1015.3 |
| 20260503042003 | 41 | 76 | 0.0 | 1.0 | 0.00 | 0.00 | 0.00 | 96 | 1015.2 |
| 20260503041503 | 42 | 69 | 1.0 | 1.0 | 0.00 | 0.00 | 0.00 | 96 | 1015.3 |
| 20260503041022 | 42 | 66 | 1.0 | 1.0 | 0.00 | 0.00 | 0.00 | 96 | 1015.1 |
| 20260503040503 | 42 | 55 | 1.0 | 2.0 | 0.00 | 0.00 | 0.00 | 96 | 1015.2 |
| 20260503040003 | 42 | 63 | 2.0 | 2.0 | 0.00 | 0.00 | 0.00 | 96 | 1015.1 |
| 20260503035522 | 42 | 48 | 1.0 | 2.0 | 0.00 | 0.00 | 0.06 | 96 | 1015.1 |
| 20260503035003 | 42 | 78 | 1.0 | 1.0 | 0.00 | 0.00 | 0.06 | 96 | 1015.1 |
| 20260503034503 | 42 | 62 | 1.0 | 2.0 | 0.00 | 0.00 | 0.06 | 96 | 1015.0 |
| 20260503034003 | 42 | 45 | 0.0 | 1.0 | 0.00 | 0.00 | 0.06 | 96 | 1015.1 |
| 20260503033503 | 42 | 77 | 2.0 | 2.0 | 0.00 | 0.00 | 0.06 | 96 | 1015.0 |
| 20260503033022 | 42 | 60 | 0.0 | 1.0 | 0.00 | 0.00 | 0.06 | 96 | 1015.0 |
| 20260503032541 | 42 | 60 | 0.0 | 0.0 | 0.00 | 0.00 | 0.06 | 96 | 1015.1 |
| 20260503032003 | 43 | 89 | 0.0 | 1.0 | 0.00 | 0.00 | 0.06 | 96 | 1014.9 |
| 20260503031522 | 43 | 63 | 1.0 | 1.0 | 0.00 | 0.00 | 0.06 | 96 | 1014.9 |
| 20260503031003 | 43 | 30 | 2.0 | 2.0 | 0.00 | 0.00 | 0.06 | 96 | 1014.8 |
| 20260503030503 | 43 | 55 | 0.0 | 1.0 | 0.00 | 0.00 | 0.06 | 95 | 1014.9 |
| 20260503030004 | 43 | 35 | 0.0 | 2.0 | 0.00 | 0.00 | 0.06 | 95 | 1014.5 |
| 20260503025504 | 43 | 49 | 1.0 | 2.0 | 0.00 | 0.00 | 0.06 | 95 | 1014.3 |
| 20260503025004 | 44 | 54 | 2.0 | 2.0 | 0.00 | 0.00 | 0.06 | 95 | 1014.5 |
| 20260503024504 | 44 | 85 | 1.0 | 1.0 | 0.00 | 0.00 | 0.06 | 95 | 1014.4 |
| 20260503024004 | 44 | 79 | 1.0 | 1.0 | 0.00 | 0.00 | 0.06 | 95 | 1014.1 |
| 20260503023504 | 44 | 80 | 0.0 | 1.0 | 0.00 | 0.00 | 0.06 | 95 | 1014.2 |
| 20260503023004 | 44 | 62 | 0.0 | 1.0 | 0.00 | 0.00 | 0.06 | 95 | 1014.3 |
| 20260503022503 | 44 | 65 | 0.0 | 1.0 | 0.00 | 0.00 | 0.06 | 95 | 1014.3 |
| 20260503022003 | 44 | 69 | 0.0 | 1.0 | 0.00 | 0.00 | 0.06 | 95 | 1014.4 |
| 20260503021503 | 45 | 55 | 0.0 | 1.0 | 0.00 | 0.00 | 0.06 | 95 | 1014.4 |
| 20260503021003 | 45 | 30 | 0.0 | 1.0 | 0.00 | 0.00 | 0.06 | 95 | 1014.0 |
| 20260503020503 | 45 | 49 | 0.0 | 1.0 | 0.00 | 0.00 | 0.06 | 95 | 1013.9 |
| 20260503020003 | 45 | 64 | 0.0 | 0.0 | 0.00 | 0.00 | 0.06 | 95 | 1014.0 |
| 20260503015522 | 46 | 43 | 1.0 | 1.0 | 0.00 | 0.00 | 0.06 | 95 | 1013.9 |
| 20260503015003 | 46 | 41 | 2.0 | 2.0 | 0.00 | 0.00 | 0.06 | 94 | 1014.0 |
| 20260503014503 | 46 | 135 | 0.0 | 0.0 | 0.00 | 0.00 | 0.06 | 94 | 1013.6 |
| 20260503014003 | 46 | 76 | 0.0 | 1.0 | 0.00 | 0.00 | 0.06 | 94 | 1013.9 |
| 20260503013503 | 46 | 48 | 0.0 | 1.0 | 0.00 | 0.00 | 0.06 | 94 | 1013.8 |
| 20260503013022 | 46 | 41 | 0.0 | 1.0 | 0.00 | 0.00 | 0.06 | 94 | 1013.6 |
| 20260503012503 | 47 | 76 | 0.0 | 0.0 | 0.00 | 0.00 | 0.06 | 93 | 1013.3 |
| 20260503012003 | 47 | 38 | 0.0 | 1.0 | 0.00 | 0.00 | 0.06 | 93 | 1013.7 |
| 20260503011503 | 47 | 113 | 0.0 | 1.0 | 0.00 | 0.00 | 0.06 | 93 | 1013.5 |
| 20260503011003 | 47 | 107 | 0.0 | 2.0 | 0.00 | 0.00 | 0.06 | 93 | 1013.4 |
| 20260503010522 | 47 | 76 | 0.0 | 0.0 | 0.00 | 0.00 | 0.06 | 92 | 1013.4 |
| 20260503010003 | 48 | 69 | 0.0 | 1.0 | 0.00 | 0.00 | 0.06 | 91 | 1013.3 |
| 20260503005503 | 48 | 110 | 0.0 | 0.0 | 0.00 | 0.00 | 0.06 | 91 | 1013.3 |
| 20260503005041 | 48 | 53 | 0.0 | 1.0 | 0.00 | 0.00 | 0.06 | 91 | 1013.1 |
| 20260503004503 | 49 | 44 | 0.0 | 1.0 | 0.00 | 0.00 | 0.06 | 90 | 1013.1 |
| 20260503004003 | 49 | 64 | 0.0 | 0.0 | 0.00 | 0.00 | 0.06 | 90 | 1012.9 |
| 20260503003522 | 49 | 55 | 0.0 | 1.0 | 0.00 | 0.00 | 0.06 | 89 | 1012.9 |
| 20260503003003 | 50 | 45 | 1.0 | 1.0 | 0.00 | 0.00 | 0.06 | 89 | 1012.9 |
| 20260503002503 | 50 | 33 | 2.0 | 2.0 | 0.00 | 0.00 | 0.06 | 89 | 1012.9 |
| 20260503002022 | 51 | 72 | 0.0 | 0.0 | 0.00 | 0.00 | 0.06 | 88 | 1012.6 |
| 20260503001522 | 51 | 22 | 0.0 | 0.0 | 0.00 | 0.00 | 0.06 | 87 | 1012.7 |
| 20260503001003 | 51 | 22 | 0.0 | 0.0 | 0.00 | 0.00 | 0.06 | 86 | 1012.6 |
| 20260503000522 | 52 | 44 | 0.0 | 0.0 | 0.00 | 0.00 | 0.06 | 85 | 1012.4 |
| 20260503000003 | 52 | 299 | 0.0 | 0.0 | 0.00 | 0.00 | 0.06 | 84 | 1012.4 |
| 20260502235503 | 53 | 326 | 0.0 | 0.0 | 0.00 | 0.00 | 0.06 | 83 | 1012.3 |
| 20260502235003 | 53 | 48 | 0.0 | 1.0 | 0.00 | 0.00 | 0.06 | 81 | 1012.3 |
| 20260502234503 | 54 | 13 | 0.0 | 0.0 | 0.00 | 0.00 | 0.06 | 80 | 1012.0 |
| 20260502234003 | 54 | 13 | 0.0 | 0.0 | 0.00 | 0.00 | 0.06 | 79 | 1012.0 |
| 20260502233503 | 54 | 28 | 0.0 | 0.0 | 0.00 | 0.00 | 0.06 | 78 | 1012.0 |
| 20260502233003 | 55 | 50 | 0.0 | 0.0 | 0.00 | 0.00 | 0.06 | 77 | 1011.8 |
| 20260502232503 | 55 | 50 | 0.0 | 0.0 | 0.00 | 0.00 | 0.06 | 74 | 1011.6 |
| 20260502232003 | 56 | 311 | 0.0 | 0.0 | 0.00 | 0.00 | 0.06 | 74 | 1011.7 |
| 20260502231503 | 56 | 157 | 0.0 | 0.0 | 0.00 | 0.00 | 0.06 | 73 | 1011.3 |
| 20260502231003 | 56 | 129 | 0.0 | 0.0 | 0.00 | 0.00 | 0.06 | 73 | 1011.4 |
| 20260502230503 | 57 | 185 | 0.0 | 1.0 | 0.00 | 0.00 | 0.06 | 70 | 1011.4 |
| 20260502230003 | 58 | 110 | 1.0 | 1.0 | 0.00 | 0.00 | 0.06 | 67 | 1011.6 |
| 20260502225503 | 58 | 69 | 2.0 | 2.0 | 0.00 | 0.00 | 0.06 | 66 | 1011.5 |
| 20260502225022 | 58 | 76 | 0.0 | 1.0 | 0.00 | 0.00 | 0.06 | 68 | 1011.4 |
| 20260502224503 | 58 | 98 | 1.0 | 1.0 | 0.00 | 0.00 | 0.06 | 67 | 1011.5 |
| 20260502224003 | 57 | 91 | 1.0 | 2.0 | 0.00 | 0.00 | 0.06 | 68 | 1011.5 |
| 20260502223503 | 57 | 73 | 2.0 | 3.0 | 0.00 | 0.00 | 0.06 | 63 | 1011.5 |
| 20260502223022 | 58 | 70 | 1.0 | 2.0 | 0.00 | 0.00 | 0.06 | 64 | 1011.3 |
| 20260502222503 | 58 | 42 | 2.0 | 2.0 | 0.00 | 0.00 | 0.06 | 63 | 1011.5 |
| 20260502222003 | 58 | 77 | 1.0 | 2.0 | 0.00 | 0.00 | 0.06 | 64 | 1011.4 |
| 20260502221503 | 57 | 67 | 2.0 | 3.0 | 0.00 | 0.00 | 0.06 | 61 | 1011.4 |
| 20260502221003 | 57 | 48 | 3.0 | 3.0 | 0.00 | 0.00 | 0.06 | 61 | 1011.4 |
| 20260502220522 | 57 | 56 | 3.0 | 3.0 | 0.00 | 0.00 | 0.06 | 62 | 1011.5 |
| 20260502220004 | 57 | 62 | 2.0 | 4.0 | 0.00 | 0.00 | 0.06 | 62 | 1011.3 |
| 20260502215504 | 57 | 76 | 2.0 | 3.0 | 0.00 | 0.00 | 0.06 | 62 | 1011.4 |
| 20260502215004 | 57 | 63 | 2.0 | 3.0 | 0.00 | 0.00 | 0.06 | 62 | 1011.1 |
| 20260502214504 | 57 | 62 | 2.0 | 4.0 | 0.00 | 0.00 | 0.06 | 62 | 1011.3 |
| 20260502214004 | 57 | 38 | 2.0 | 3.0 | 0.00 | 0.00 | 0.06 | 61 | 1011.1 |
| 20260502213504 | 57 | 42 | 3.0 | 4.0 | 0.00 | 0.00 | 0.06 | 61 | 1011.2 |
| 20260502213004 | 58 | 34 | 3.0 | 5.0 | 0.00 | 0.00 | 0.06 | 61 | 1011.0 |
| 20260502212503 | 58 | 47 | 4.0 | 6.0 | 0.00 | 0.00 | 0.06 | 60 | 1010.9 |
| 20260502212004 | 58 | 58 | 3.0 | 3.0 | 0.00 | 0.00 | 0.06 | 61 | 1011.2 |
| 20260502211503 | 58 | 41 | 3.0 | 6.0 | 0.00 | 0.00 | 0.06 | 61 | 1011.1 |
| 20260502211022 | 58 | 39 | 3.0 | 6.0 | 0.00 | 0.00 | 0.06 | 60 | 1011.1 |
| 20260502210503 | 58 | 34 | 3.0 | 4.0 | 0.00 | 0.00 | 0.06 | 59 | 1011.2 |
| 20260502210003 | 58 | 29 | 4.0 | 6.0 | 0.00 | 0.00 | 0.06 | 60 | 1011.2 |
| 20260502205503 | 58 | 37 | 2.0 | 4.0 | 0.00 | 0.00 | 0.06 | 63 | 1011.4 |
| 20260502205003 | 59 | 46 | 4.0 | 5.0 | 0.00 | 0.00 | 0.06 | 62 | 1011.2 |
| 20260502204503 | 58 | 49 | 0.0 | 3.0 | 0.00 | 0.00 | 0.06 | 66 | 1011.3 |
| 20260502204003 | 58 | 53 | 1.0 | 3.0 | 0.00 | 0.00 | 0.06 | 75 | 1011.2 |
| 20260502203503 | 58 | 71 | 0.0 | 2.0 | 0.00 | 0.00 | 0.06 | 77 | 1011.1 |
| 20260502203003 | 58 | 17 | 0.0 | 0.0 | 0.00 | 0.00 | 0.06 | 76 | 1011.2 |
| 20260502202503 | 58 | 313 | 0.0 | 2.0 | 0.00 | 0.00 | 0.06 | 75 | 1011.1 |
| 20260502202022 | 58 | 119 | 0.0 | 1.0 | 0.00 | 0.00 | 0.06 | 76 | 1010.9 |
| 20260502201503 | 58 | 99 | 2.0 | 3.0 | 0.00 | 0.00 | 0.06 | 75 | 1011.1 |
| 20260502201003 | 59 | 84 | 2.0 | 2.0 | 0.00 | 0.00 | 0.06 | 76 | 1011.2 |
| 20260502200503 | 58 | 196 | 0.0 | 2.0 | 0.00 | 0.00 | 0.06 | 76 | 1011.4 |
| 20260502200003 | 59 | 109 | 2.0 | 2.0 | 0.00 | 0.00 | 0.06 | 75 | 1011.0 |
| 20260502195503 | 60 | 95 | 1.0 | 2.0 | 0.00 | 0.00 | 0.06 | 71 | 1010.9 |
| 20260502195003 | 60 | 119 | 0.0 | 2.0 | 0.00 | 0.00 | 0.06 | 73 | 1011.1 |
| 20260502194503 | 60 | 89 | 0.0 | 1.0 | 0.00 | 0.00 | 0.06 | 73 | 1011.0 |
| 20260502194003 | 59 | 94 | 0.0 | 2.0 | 0.00 | 0.00 | 0.06 | 74 | 1011.0 |
| 20260502193503 | 60 | 98 | 2.0 | 3.0 | 0.00 | 0.00 | 0.06 | 73 | 1011.3 |
| 20260502193003 | 59 | 80 | 1.0 | 2.0 | 0.00 | 0.00 | 0.06 | 73 | 1011.3 |
| 20260502192503 | 60 | 104 | 0.0 | 4.0 | 0.00 | 0.00 | 0.06 | 70 | 1011.2 |
| 20260502192003 | 60 | 48 | 1.0 | 2.0 | 0.00 | 0.00 | 0.06 | 64 | 1011.2 |
| 20260502191503 | 60 | 120 | 0.0 | 2.0 | 0.00 | 0.00 | 0.06 | 67 | 1011.6 |
| 20260502191003 | 60 | 47 | 1.0 | 2.0 | 0.00 | 0.00 | 0.06 | 65 | 1011.3 |
| 20260502190522 | 60 | 122 | 0.0 | 2.0 | 0.00 | 0.00 | 0.06 | 68 | 1011.5 |
| 20260502190003 | 60 | 100 | 1.0 | 2.0 | 0.00 | 0.00 | 0.06 | 67 | 1011.6 |
| 20260502185503 | 60 | 353 | 0.0 | 2.0 | 0.00 | 0.00 | 0.06 | 66 | 1011.5 |
| 20260502185041 | 59 | 118 | 2.0 | 3.0 | 0.00 | 0.00 | 0.06 | 65 | 1011.6 |
| 20260502184522 | 59 | 99 | 1.0 | 2.0 | 0.00 | 0.00 | 0.06 | 64 | 1011.3 |
| 20260502184041 | 60 | 78 | 2.0 | 6.0 | 0.00 | 0.00 | 0.06 | 62 | 1011.4 |
| 20260502183503 | 59 | 73 | 1.0 | 4.0 | 0.00 | 0.00 | 0.06 | 65 | 1011.5 |
| 20260502183003 | 59 | 44 | 3.0 | 5.0 | 0.00 | 0.00 | 0.06 | 65 | 1011.6 |
| 20260502182503 | 59 | 29 | 3.0 | 5.0 | 0.00 | 0.00 | 0.06 | 67 | 1011.6 |
| 20260502182003 | 58 | 32 | 3.0 | 7.0 | 0.00 | 0.00 | 0.06 | 67 | 1012.0 |
| 20260502181522 | 58 | 26 | 3.0 | 6.0 | 0.00 | 0.00 | 0.06 | 65 | 1011.9 |
| 20260502181003 | 59 | 56 | 6.0 | 9.0 | 0.00 | 0.00 | 0.06 | 64 | 1011.7 |
| 20260502180503 | 59 | 57 | 4.0 | 4.0 | 0.00 | 0.00 | 0.06 | 68 | 1011.6 |
| 20260502170503 | 57 | 62 | 2.0 | 7.0 | 0.00 | 0.00 | 0.06 | 73 | 1012.2 |
| 20260502164003 | 58 | 39 | 3.0 | 5.0 | 0.00 | 0.00 | 0.06 | 75 | 1012.4 |
| 20260502163522 | 58 | 151 | 3.0 | 5.0 | 0.00 | 0.00 | 0.06 | 76 | 1012.6 |
| 20260502163022 | 58 | 62 | 2.0 | 6.0 | 0.00 | 0.00 | 0.06 | 72 | 1012.5 |
| 20260502162503 | 57 | 60 | 3.0 | 7.0 | 0.00 | 0.00 | 0.06 | 73 | 1012.7 |
| 20260502162022 | 57 | 51 | 3.0 | 4.0 | 0.00 | 0.00 | 0.06 | 78 | 1012.8 |
| 20260502161503 | 56 | 48 | 4.0 | 9.0 | 0.00 | 0.00 | 0.06 | 74 | 1012.8 |
| 20260502161003 | 56 | 55 | 3.0 | 7.0 | 0.00 | 0.00 | 0.06 | 76 | 1013.3 |
| 20260502160522 | 57 | 57 | 4.0 | 5.0 | 0.00 | 0.00 | 0.06 | 79 | 1013.2 |
| 20260502152003 | 55 | 48 | 2.0 | 3.0 | 0.00 | 0.01 | 0.06 | 85 | 1013.5 |
| 20260502151503 | 55 | 36 | 4.0 | 4.0 | 0.00 | 0.01 | 0.06 | 83 | 1012.9 |
| 20260502151003 | 55 | 58 | 2.0 | 3.0 | 0.00 | 0.01 | 0.06 | 84 | 1013.1 |
| 20260502150522 | 55 | 32 | 2.0 | 3.0 | 0.00 | 0.01 | 0.06 | 86 | 1013.4 |
| 20260502130504 | 52 | 43 | 3.0 | 4.0 | 0.02 | 0.01 | 0.03 | 86 | 1012.4 |
| 20260502123524 | 53 | 52 | 3.0 | 4.0 | 0.00 | 0.00 | 0.02 | 85 | 1012.9 |
| 20260502123004 | 53 | 56 | 4.0 | 4.0 | 0.00 | 0.01 | 0.02 | 86 | 1012.7 |
| 20260502122504 | 53 | 47 | 2.0 | 4.0 | 0.00 | 0.01 | 0.02 | 86 | 1012.6 |
| 20260502122004 | 52 | 45 | 4.0 | 5.0 | 0.00 | 0.01 | 0.02 | 86 | 1012.6 |
| 20260502121504 | 52 | 32 | 3.0 | 4.0 | 0.00 | 0.01 | 0.02 | 88 | 1012.8 |
| 20260502121004 | 52 | 45 | 2.0 | 4.0 | 0.00 | 0.01 | 0.02 | 89 | 1012.5 |
| 20260502120504 | 52 | 40 | 3.0 | 4.0 | 0.02 | 0.01 | 0.02 | 90 | 1012.1 |
| 20260502115504 | 52 | 53 | 3.0 | 4.0 | 0.00 | 0.01 | 0.02 | 90 | 1012.4 |
| 20260502115023 | 52 | 42 | 2.0 | 4.0 | 0.00 | 0.01 | 0.02 | 90 | 1012.1 |
| 20260502114503 | 52 | 54 | 3.0 | 4.0 | 0.02 | 0.01 | 0.02 | 90 | 1012.5 |
| 20260502114004 | 52 | 45 | 2.0 | 3.0 | 0.02 | 0.01 | 0.02 | 90 | 1012.6 |
| 20260502113542 | 52 | 42 | 2.0 | 3.0 | 0.00 | 0.01 | 0.01 | 90 | 1012.4 |
| 20260502113004 | 52 | 51 | 2.0 | 3.0 | 0.00 | 0.01 | 0.01 | 90 | 1012.5 |
| 20260502112503 | 52 | 35 | 2.0 | 2.0 | 0.00 | 0.01 | 0.01 | 90 | 1012.5 |
| 20260502112022 | 52 | 54 | 2.0 | 3.0 | 0.02 | 0.01 | 0.01 | 90 | 1012.4 |
| 20260502111503 | 52 | 77 | 3.0 | 4.0 | 0.02 | 0.01 | 0.01 | 90 | 1012.1 |
| 20260502111003 | 52 | 53 | 2.0 | 3.0 | 0.00 | 0.01 | 0.01 | 90 | 1012.7 |
| 20260502110503 | 52 | 63 | 2.0 | 3.0 | 0.00 | 0.01 | 0.01 | 89 | 1012.2 |
| 20260502110003 | 52 | 67 | 3.0 | 3.0 | 0.02 | 0.01 | 0.01 | 89 | 1012.2 |
| 20260502105503 | 53 | 71 | 2.0 | 2.0 | 0.02 | 0.01 | 0.01 | 89 | 1012.6 |
| 20260502105003 | 53 | 58 | 2.0 | 2.0 | 0.00 | 0.00 | 0.00 | 90 | 1012.6 |
| 20260502104503 | 53 | 48 | 2.0 | 3.0 | 0.02 | 0.00 | 0.00 | 88 | 1012.6 |
| 20260502104003 | 53 | 62 | 2.0 | 3.0 | 0.02 | 0.00 | 0.00 | 88 | 1012.6 |
| 20260502103503 | 53 | 68 | 2.0 | 4.0 | 0.00 | 0.00 | 0.00 | 88 | 1012.6 |
| 20260502103003 | 53 | 39 | 3.0 | 3.0 | 0.00 | 0.00 | 0.00 | 88 | 1012.4 |
| 20260502102503 | 53 | 53 | 3.0 | 4.0 | 0.00 | 0.00 | 0.00 | 87 | 1012.5 |
| 20260502101504 | 53 | 58 | 2.0 | 4.0 | 0.00 | 0.00 | 0.00 | 88 | 1012.4 |
| 20260502101004 | 53 | 54 | 2.0 | 5.0 | 0.00 | 0.00 | 0.00 | 90 | 1012.4 |
| 20260502100503 | 53 | 50 | 4.0 | 4.0 | 0.00 | 0.00 | 0.00 | 91 | 1012.6 |
| 20260502091504 | 52 | 47 | 2.0 | 3.0 | 0.00 | 0.00 | 0.00 | 92 | 1012.6 |
| 20260502091004 | 53 | 38 | 3.0 | 4.0 | 0.00 | 0.00 | 0.00 | 91 | 1012.5 |
| 20260502090504 | 52 | 56 | 2.0 | 2.0 | 0.00 | 0.00 | 0.00 | 91 | 1012.8 |
| 20260502071503 | 51 | 53 | 1.0 | 2.0 | 0.00 | 0.00 | 0.00 | 94 | 1011.4 |
| 20260502071003 | 51 | 59 | 0.0 | 1.0 | 0.00 | 0.00 | 0.00 | 94 | 1011.5 |
| 20260502070503 | 51 | 57 | 0.0 | 1.0 | 0.00 | 0.00 | 0.00 | 94 | 1011.4 |
| 20260502070004 | 51 | 59 | 1.0 | 1.0 | 0.00 | 0.00 | 0.00 | 94 | 1011.4 |
| 20260502065504 | 51 | 71 | 1.0 | 2.0 | 0.00 | 0.00 | 0.00 | 94 | 1011.3 |
| 20260502065004 | 51 | 57 | 1.0 | 1.0 | 0.00 | 0.00 | 0.00 | 94 | 1011.5 |
| 20260502064504 | 51 | 42 | 2.0 | 2.0 | 0.00 | 0.00 | 0.00 | 94 | 1011.6 |
| 20260502064004 | 51 | 50 | 1.0 | 2.0 | 0.00 | 0.00 | 0.00 | 94 | 1011.7 |
| 20260502063504 | 51 | 60 | 0.0 | 1.0 | 0.00 | 0.00 | 0.00 | 94 | 1011.6 |
| 20260502063004 | 51 | 66 | 0.0 | 1.0 | 0.00 | 0.00 | 0.00 | 94 | 1011.9 |
| 20260502062503 | 51 | 70 | 1.0 | 2.0 | 0.00 | 0.00 | 0.00 | 94 | 1011.7 |
| 20260502062003 | 51 | 72 | 0.0 | 1.0 | 0.00 | 0.00 | 0.00 | 94 | 1012.0 |
| 20260502061522 | 51 | 49 | 0.0 | 1.0 | 0.00 | 0.00 | 0.00 | 94 | 1011.9 |
| 20260502061004 | 51 | 55 | 0.0 | 1.0 | 0.00 | 0.00 | 0.00 | 94 | 1012.1 |
| 20260502060504 | 51 | 74 | 0.0 | 1.0 | 0.00 | 0.00 | 0.00 | 94 | 1012.0 |
| 20260502060004 | 51 | 116 | 0.0 | 1.0 | 0.00 | 0.00 | 0.00 | 93 | 1011.8 |
| 20260502055503 | 51 | 55 | 0.0 | 0.0 | 0.00 | 0.00 | 0.00 | 93 | 1011.9 |
| 20260502055003 | 51 | 96 | 1.0 | 2.0 | 0.00 | 0.00 | 0.00 | 93 | 1012.2 |
| 20260502054503 | 51 | 60 | 0.0 | 1.0 | 0.00 | 0.00 | 0.00 | 93 | 1012.3 |
| 20260502054004 | 51 | 60 | 0.0 | 1.0 | 0.00 | 0.00 | 0.00 | 93 | 1012.3 |
| 20260502053503 | 51 | 73 | 1.0 | 2.0 | 0.00 | 0.00 | 0.00 | 93 | 1012.3 |
| 20260502053004 | 51 | 53 | 2.0 | 2.0 | 0.00 | 0.00 | 0.00 | 93 | 1012.4 |
| 20260502052503 | 51 | 70 | 1.0 | 1.0 | 0.00 | 0.00 | 0.00 | 93 | 1012.3 |
| 20260502052003 | 51 | 59 | 1.0 | 1.0 | 0.00 | 0.00 | 0.00 | 93 | 1012.4 |
| 20260502051503 | 51 | 72 | 0.0 | 1.0 | 0.00 | 0.00 | 0.00 | 93 | 1012.4 |
| 20260502051003 | 51 | 65 | 1.0 | 2.0 | 0.00 | 0.00 | 0.00 | 93 | 1012.4 |
| 20260502050503 | 51 | 43 | 2.0 | 2.0 | 0.00 | 0.00 | 0.00 | 93 | 1012.3 |
| 20260502050003 | 51 | 66 | 0.0 | 1.0 | 0.00 | 0.00 | 0.00 | 93 | 1012.5 |